Skip to main content Skip to accessibility
This website is not compatible with your web browser. You should install a newer browser. If you live in Jersey and need help upgrading call the States of Jersey web team on 440099.
Homegov.je

Information and public services for the Island of Jersey

L'înformâtion et les sèrvices publyis pouor I'Île dé Jèrri

  • Choose the service you want to log in to:

  • gov.je

    Update your notification preferences

  • one.gov.je

    Access government services

  • CAESAR

    Clear goods through customs or claim relief

  • Talentlink

    View or update your States of Jersey job application

Local METARs

METAR EGJJ 250750Z 26012KT 4000 -RA BKN002 14/14 Q1020

METAR EGJB 250750Z 25012KT 0300 R27/1400 -RA FG BKN000 14/14 Q1020 RERA

METAR EGJA 250750Z 25010KT 0300 R26/0450 -DZ FG BKN000 14/14 Q1019

METAR LFRD 250800Z AUTO 28006KT 9999 BKN009/// OVC013/// ///TCU 15/14 Q1021 TEMPO 4000 RA BKN009

METAR LFRC 250800Z AUTO 24010KT 210V270 9999 -RADZ OVC005/// ///TCU 15/14 Q1019 TEMPO 1500 DZ BR BKN003

 

 

 

​Apologies to the disruption to normal service. Commercial Aviation Services are available from the Jersey Met Forecaster 01534 448765.

Times are in Greenwich Mean Time (GMT) and not British Summer Time (BST). They will be one hour different during BST.

Back to top
rating button